Regional Weather Roundup
Issued by NWS Charleston, WV

Home | Current Version | Previous Version | Graphics & Text | Print | Product List | Glossary On
Versions: 1 2 3 4 5 6 7 8 9 10 11 12 13 14 15 16 17 18 19 20 21 22 23 24 25 26 27
000
ASUS41 KRLX 302310
RWRRLX
West Virginia Regional Weather Roundup
National Weather Service Charleston WV
700 PM EDT THU OCT 30 2014

Note: "fair" indicates few or no clouds below 12,000 feet with no
significant weather and/or obstructions to visibility.

WVZ003-310000-
Northern Panhandle of West Virginia

CITY           SKY/WX    TMP DP  RH WIND       PRES   REMARKS
WHEELING       CLOUDY    47  35  63 W5        30.07R
$$

WVZ009-310000-
Northwest West Virginia

CITY           SKY/WX    TMP DP  RH WIND       PRES   REMARKS
PARKERSBURG    CLOUDY    49  33  54 CALM      30.10S
$$

WVZ006-310000-
Western West Virginia

CITY           SKY/WX    TMP DP  RH WIND       PRES   REMARKS
HUNTINGTON     CLOUDY    48  34  58 CALM      30.08R
$$

WVZ015-310000-
West Central West Virginia

CITY           SKY/WX    TMP DP  RH WIND       PRES   REMARKS
CHARLESTON     CLOUDY    48  34  58 CALM      30.08S
$$

WVZ022-031-310000-
North Central West Virginia

CITY           SKY/WX    TMP DP  RH WIND       PRES   REMARKS
CLARKSBURG     CLOUDY    48  36  63 CALM      30.07S
MORGANTOWN     CLOUDY    50  34  54 S3        30.08S
$$

WVZ025-035-042-045-310000-
Southern West Virginia

CITY           SKY/WX    TMP DP  RH WIND       PRES   REMARKS
BECKLEY        CLEAR     40  30  67 NE5       30.04F
LOGAN            N/A     45  34  65 NE3       30.06R
BLUEFIELD      CLEAR     46  32  58 N3        30.04R
LEWISBURG      CLEAR     44  32  63 W3        30.05R
$$

WVZ047-310000-
Northern Mountains of West Virginia

CITY           SKY/WX    TMP DP  RH WIND       PRES   REMARKS
ELKINS         CLOUDY    44  34  67 W3        30.07R
$$

WVZ052-310000-
Eastern Panhandle of West Virginia

CITY           SKY/WX    TMP DP  RH WIND       PRES   REMARKS
MARTINSBURG    CLOUDY    52  32  46 CALM      30.05S
PETERSBURG     CLOUDY    50  32  50 NW5       30.06S
$$



USA.gov is the U.S. government's official web portal to all federal, state and local government web resources and services.